Showing default

GEESAT 2-08, 58912

Orbit data source: Space-Track

GEESAT 2-08, 58912 is a payload satellite owned by GeeSpace (CN) in LEO that was launched on Fri, 02 Feb 2024 UTC via a CHANG ZHENG 2C launch vehicle from the Xichang Space Center, China (XSC). Payload-class satellites include a variety of spacecraft equipped with specific instruments for various scientific and technological missions. These include communications satellites like Starlink; space stations such as the ISS; scientific satellites like the Hubble; Earth observation satellites from companies like Planet Labs, Umbra, and HawkEye 360; GPS; miniature CubeSats for education and research; and military/defense satellites.

Loading next visibility...
Identifier
58912, 2024-023H
Orbit
LEO
Country
Flag of CNCN / PRC
Related business
Manufacturer
GWCG
Mission
Operational Commercial Navigation
Bus & Motor
GPS100, Unknown motor
Mass
130 kg wet, 130 kg dry
Launch date (UTC)
2024-02-02 (2 years ago)
Launch vehicle
CHANG ZHENG 2C
Launch site
Xichang Space Center, China (XSC)
Object type
Payload
Rocket body
Debris
Shape & HBR
Box + 2 Pan, 1.0 m
Radar Cross Section
0.833 m², Medium (>0.1 m² and < 1m²)

Expand to show TLE details & history
Last TLE update: 8 hours ago

TLE from 8 hours ago
0 GEESAT 2-08
1 58912U 24023H   25304.26202638  .00004808  00000-0  51742-3 0  9991
2 58912  49.9897 333.8298 0013487 277.4441  82.4967 14.89947004 94938
Epoch: 2025-10-31T06:17Z
TLE epoch observation values (Epoch: 2025-10-31T06:17:19.079Z)
Latitude
-0.00003°
Longitude
-160.30871°
Altitude
597.429 km
Speed
7.563 km/s
True Right ascension
22h 15m 19s
True Declination
0° 00' 00"
Sunlit
Object was in full shadow at epoch
Visualization orbit readout
Latitude
Unknown
Longitude
Unknown
Altitude
Unknown
Speed
Unknown
Apparent Right ascension
Unknown
Apparent Declination
Unknown
Sunlit
N/A
Visualization observer readout
Local Sidereal Time
09:43:22
Azimuth
Unknown
Elevation
Unknown
Doppler factor
Unknown
Orbital elements
Apogee altitude
608.273 km
Perigee altitude
589.453 km
Semi-major axis
6,977 km
Eccentricity
0.00135
Inclination
49.9897°
RAAN
333.8298°
Arg. of periapsis
277.4441°
True anomaly
82.64996°
Mean anomaly
82.4967°
Eccentric anomaly
82.57333°
Mean motion
3.72426 °/min
Orbital period
96.66 mins
BSTAR
0.00051742
Loading maneuver chart data...
Computing Atmospheric mass density...
Loading historical data...
Loading historical data...
Loading historical data...
Loading historical data...
Loading historical data...
Loading historical data...
Loading historical data...

Documentation

Showing up to 5 results
|